KJ7AZ-3 Weather Reports


time (UTC)temp
C
wind
direction
speed
KPH
gust
KPH
rain 1hr
cm
rain 24hr
cm
rain mn
cm
humidity
%
barometer
mb
20260506072153 9 193 0.0 0.0 0.00 0.00 0.00
20260506070655 9 198 1.6 0.0 0.00 0.00 0.00
20260506062158 10 169 3.2 3.2 0.00 0.00 0.00
20260506060700 10 184 6.4 3.2 0.00 0.00 0.00
20260506050705 10 179 0.0 0.0 0.00 0.00 0.00
20260506043708 10 207 1.6 0.0 0.00 0.00 0.00
20260506042208 10 193 0.0 0.0 0.00 0.00 0.00
20260506040709 10 193 0.0 0.0 0.00 0.00 0.00
20260506035211 9 166 0.0 0.0 0.00 0.00 0.00
20260506033712 9 203 1.6 0.0 0.00 0.00 0.00
20260506032213 10 193 0.0 0.0 0.00 0.00 0.00
20260506030714 11 257 1.6 0.0 0.00 0.00 0.00
20260506023716 12 214 0.0 0.0 0.00 0.00 0.00
20260506022217 12 224 3.2 1.6 0.00 0.00 0.00
20260506020718 11 214 3.2 3.2 0.00 0.00 0.00
20260506015219 11 249 8.0 6.4 0.00 0.00 0.00
20260506013720 11 252 4.8 6.4 0.00 0.00 0.00
20260506005222 18 167 8.0 4.8 0.00 0.00 0.00
20260506002224 17 262 22.5 25.7 0.00 0.00 0.00
20260506000725 17 252 12.9 17.7 0.00 0.00 0.00
20260505235226 18 280 14.5 17.7 0.00 0.00 0.00
20260505233726 18 240 20.9 22.5 0.00 0.00 0.00
20260505232227 20 311 16.1 11.3 0.00 0.00 0.00
20260505230728 20 271 16.1 22.5 0.00 0.00 0.00
20260505225228 21 262 17.7 14.5 0.00 0.00 0.00
20260505223729 21 240 14.5 24.1 0.00 0.00 0.00
20260505222230 20 183 22.5 19.3 0.00 0.00 0.00
20260505220730 21 280 17.7 17.7 0.00 0.00 0.00
20260505205234 20 278 17.7 25.7 0.00 0.00 0.00
20260505203735 20 249 14.5 16.1 0.00 0.00 0.00
20260505202236 18 243 11.3 16.1 0.00 0.00 0.00
20260505192240 17 255 14.5 22.5 0.00 0.00 0.00
20260505185242 17 321 11.3 6.4 0.00 0.00 0.00
20260505183742 16 280 12.9 11.3 0.00 0.00 0.00
20260505180744 15 290 8.0 1.6 0.00 0.00 0.00
20260505175245 15 305 6.4 1.6 0.00 0.00 0.00
20260505173746 13 271 9.7 9.7 0.00 0.00 0.00
20260505170748 12 222 6.4 3.2 0.00 0.00 0.00
20260505165249 11 270 11.3 6.4 0.00 0.00 0.00
20260505163750 12 240 11.3 8.0 0.00 0.00 0.00
20260505162252 14 325 11.3 8.0 0.00 0.00 0.00
20260505160752 15 257 11.3 8.0 0.00 0.00 0.00
20260505152255 15 253 14.5 8.0 0.00 0.00 0.00
20260505150756 15 271 16.1 14.5 0.00 0.00 0.00
20260505122308 9 274 1.6 1.6 0.00 0.00 0.00
20260505120809 10 277 4.8 4.8 0.00 0.00 0.00
20260505115310 11 283 3.2 4.8 0.00 0.00 0.00
20260505112313 10 297 3.2 4.8 0.00 0.00 0.00
20260505110813 10 231 3.2 3.2 0.00 0.00 0.00
20260505100817 11 260 0.0 0.0 0.00 0.00 0.00
20260505092323 13 332 6.4 4.8 0.00 0.00 0.00
20260505085323 13 256 3.2 1.6 0.00 0.00 0.00
20260505083824 13 262 12.9 12.9 0.00 0.00 0.00
20260505082325 13 259 9.7 17.7 0.00 0.00 0.00
20260505080825 14 274 9.7 6.4 0.00 0.00 0.00
20260505075326 13 267 8.0 11.3 0.00 0.00 0.00